Regional Weather Roundup
Issued by NWS

Home | Current Version | Previous Version | Text Only | Print | Product List | Glossary Off
Versions: 1 2 3 4 5 6 7 8 9 10 11 12 13 14 15 16 17 18 19 20 21 22 23 24 25 26 27 28 29 30 31 32 33 34 35 36 37 38 39 40 41 42 43 44 45 46 47 48 49 50

677
ASUS43 KLMK 161402
RWRKY
KENTUCKY REGIONAL WEATHER ROUNDUP
NATIONAL WEATHER SERVICE LOUISVILLE KY
900 AM EST MON JAN 16 2017

NOTE "FAIR" INDICATES FEW OR NO CLOUDS BELOW 12,000 FEET
WITH NO SIGNIFICANT WEATHER AND/OR OBSTRUCTIONS TO VISIBILITY.

KYZ001>023-026-027-061>063-070>075-161500-
WESTERN AND SOUTH CENTRAL KENTUCKY

CITY           SKY/WX    TMP DP  RH WIND       PRES   REMARKS
PADUCAH        FOG       47  45  93 E6        30.16S VSB 1
HENDERSON      CLOUDY    43  39  87 E5        30.20S
OWENSBORO      CLOUDY    44  43  96 E7        30.21F FOG
HOPKINSVILLE   PTCLDY    46  46 100 SE6       30.20R
BOWLING GREEN  CLOUDY    46  45  96 E3        30.24R
GLASGOW        NOT AVBL
$$

KYZ024-025-028>034-038-045-046-053-161500-
NORTH CENTRAL KENTUCKY

CITY           SKY/WX    TMP DP  RH WIND       PRES   REMARKS
LOUISVILLE/SDF CLOUDY    44  41  89 SE3       30.26S FOG
LOUISVILLE/LOU CLOUDY    44  41  89 CALM      30.27S
FORT KNOX      FOG       42  42 100 E6        30.23S VSB<1/4
$$

KYZ035>037-039>044-047>052-055>060-089>105-161500-
NORTHEAST KENTUCKY

CITY           SKY/WX    TMP DP  RH WIND       PRES   REMARKS
LEXINGTON      CLOUDY    44  42  93 E5        30.28R
COVINGTON      FOG       39  38  96 SE8       30.27S VSB 1/2 WCI  33
FRANKFORT      CLOUDY    43  39  86 E5        30.27R
$$

KYZ054-064>069-076>088-106>120-161500-
SOUTHEAST KENTUCKY

CITY           SKY/WX    TMP DP  RH WIND       PRES   REMARKS
JACKSON        FOG       42  41  96 E3        30.28F VSB 1/4
LONDON         MOSUNNY   47  44  90 CALM      30.28R
SOMERSET       NOT AVBL
MIDDLESBORO    CLOUDY    51  51 100 CALM      30.31R
MONTICELLO     CLOUDY    47  47 100 W8        30.28S
$$





USA.gov is the U.S. government's official web portal to all federal, state and local government web resources and services.